Location: Sangrey
(48.2845°N, 109.8206°W)
Time: 00:03:32
(UTC+00:00)

Envisat - Pass Details

Date: 26 January 2022
Orbit: 764 x 765 km, 98.2° (Epoch: 22 May)

Event Time Altitude Azimuth Distance (km) Brightness Sun altitude
Rises 10:58:18 0° 28° (NNE) 3,241 6.8 -39.1°
Reaches altitude 10° 11:01:25 10° 47° (NE) 2,310 6.1 -38.6°
Maximum altitude 11:04:45 17° 89° (E) 1,841 5.5 -38.0°
Drops below altitude 10° 11:08:05 10° 130° (SE) 2,299 5.8 -37.5°
Sets 11:11:09 0° 150° (SSE) 3,219 6.4 -37.0°
